THORAD DELTA 1 DEB

Satellite information

Favourite Embed

Satellite Type and Status

DEBRISIN ORBIT

Key statistics

Satellite THORAD DELTA 1 DEB at a glance.

Uptime

18660

Days in orbit

Revolutions

≈ 12.1

Per day

Orbit

SSO

Sun Synchronous Orbit

Inclination

101.0

Latest

Satellite identification and parameters

Extended collection of information and parameters for THORAD DELTA 1 DEB.

Object identification

Identified? True

Debris? True

Object name: THORAD DELTA 1 DEB

International designator: 1974-089DM

Object number (NORAD): 8785

Object ID (CCSDS): 8785

Country: UNITED STATES OF AMERICA (US)

Current information (Y/N): Y

RCS size: SMALL

Orbital parameters

Period: 118.718 minutes

Inclination: 100.9911 deg

SMA: 8001.492 km

Apoapsis: 1839.405 km

Periapsis: 1407.31 km

RAAN: 134.3743 deg

Eccentricy: 0.02700093

Argument of periapsis: 32.4975 deg

Mean anomaly: 117.9069 deg

Mean motion: 12.12959418 rev/day

Mean motion (dot): 0.00000482 rev/day2

B* drag term: 0.0048814788 1/REarth

Two-line elements (TLE)

Creation date: Dec. 15, 2025, 4:20 a.m.

Reference frame: TEME

Reference center: EARTH

Epoch: Dec. 14, 2025, 9:50 p.m. UTC

TLE line 0: 0 THORAD DELTA 1 DEB

TLE line 1: 1 08785U 74089DM 25348.90984797 .00000482 00000-0 48815-2 0 9993

TLE line 2: 2 08785 100.9911 134.3743 0270009 32.4975 117.9069 12.12959418 58675

Live tracking on map

Real-time ground track for satellite THORAD DELTA 1 DEB.

In-orbit conjunctions

A list of the most updated potential collisions computed for object THORAD DELTA 1 DEB.

Target Orbit TCA Probability of collision Miss distance Type
COSMOS 798 LEO 2025-06-23 00:37:20 0.0005308198 43.0 (m) PAYLOAD

Associated space launch

Meteorological satellite using radiometric imaging

THORAD DELTA 1 DEB was lifted into orbit during the mission ‘Delta 2310 | NOAA 4’, on board a Delta 2310 space rocket.

The launch took place on Nov. 15, 1974, 5:11 p.m. from Space Launch Complex 2W.

For more information about the launch, click the button.

Launch to space Delta 2310 | NOAA 4
Delta 2310 | NOAA 4

Agency: N/A

Status: Launch Successful

Launch date: Nov. 15, 1974, 5:11 p.m. UTC

Rocket: Delta 2310

Launch pad: Space Launch Complex 2W

Location: Vandenberg SFB, CA, USA

...

Latest news about this satellite

There are no fresh news available about this satellite. Check back as we update our databases every day.


Newsletter sign-up

Weekly statistics, charts and insights to help you stay on top of the space industry.